Regional Weather Roundup
Issued by NWS Wakefield, VA

Home | Current Version | Previous Version | Graphics & Text | Print | Product List | Glossary On
Versions: 1 2 3 4 5 6 7 8 9 10 11 12 13 14 15 16 17 18 19 20 21 22 23 24 25 26 27 28 29 30 31 32 33 34 35 36 37 38 39 40 41 42 43 44 45 46 47 48 49 50
824
ASUS41 KAKQ 111015
RWRAKQ

REGIONAL WEATHER ROUNDUP
NATIONAL WEATHER SERVICE WAKEFIELD VA
500 AM EST THU FEB 11 2016

Note: "fair" indicates few or no clouds below 12,000 feet with no
significant weather and/or obstructions to visibility. * = Denotes
station may not report precipitation (e.g., rain,snow,etc.),
thunder or fog.

VAZ042-051-052>054-056-111100-
NORTHERN VIRGINIA

CITY           SKY/WX    TMP DP  RH WIND       PRES   REMARKS
WASH NATIONAL  FAIR      23   5  46 W13       30.03R WCI  11
DULLES         FAIR      21   4  47 W7        30.01R
FORT BELVOIR   FAIR      22   4  46 NW8       30.03R
QUANTICO       FAIR      24   4  42 NW15G21   30.06R WCI  11
FREDERICKSBRG* FAIR      21   7  54 W6        30.04R
STAFFORD*      FAIR      21   4  48 W3G9      30.07R
WARRENTON      FAIR      22   9  58 W8        30.02R
CULPEPER*      FAIR      20   1  43 W7        30.04R
MANASSAS*      FAIR      21   7  53 W12G18    30.03R WCI   9
LEESBURG*      FAIR      21  10  63 W14G22    30.01R WCI   8
WINCHESTER     MOCLDY    19   5  53 W8G18     29.98S
FRONT ROYAL*   PTSUNNY   19   1  45 W8        29.99R
LURAY*         FAIR      18   0  45 SW10G16   29.99S WCI   6
$$

VAZ048-049-060>072-079>083-111100-
CENTRAL AND SOUTH CENTRAL VIRGINIA

CITY           SKY/WX    TMP DP  RH WIND       PRES   REMARKS
RICHMOND       FAIR      22   5  48 W8        30.06R
CHESTERFIELD*  FAIR      21  -2  35 W5        30.07R
PETERSBURG*    FAIR      21   4  48 SW6       30.08R
HANOVER        FAIR      22   3  44 W10       30.07R WCI  11
TAPPAHANNOCK*  FAIR      23   8  51 W6        30.05R
QUINTON*       FAIR      23   4  45 W6        30.06R
CHARLOTTSVILLE FAIR      20  -1  40 VRB5      30.02R
GORDONSVILLE*  FAIR      20   1  43 W5        30.03R
ORANGE*        FAIR      21   5  49 SW10      30.04R WCI  10
LOUISA*        FAIR      19   3  49 W3        30.02R
BUMPASS*       FAIR      20   4  50 W7        30.04R
FARMVILLE*     FAIR      21   2  43 SW7       30.06R
CREWE*         FAIR      20   6  54 CALM      30.07R
FORT PICKETT*  FAIR      19   5  54 W6        30.07R
CHASE CITY*    FAIR      20   1  44 W3        30.08R
CLARKSVILLE*   FAIR      19   5  53 SW5       30.10R
SOUTH HILL*    FAIR      20   6  54 W5        30.14R
LAWRENCEVILLE* FAIR      20   6  54 W3        30.08R
EMPORIA*       FAIR      21   7  53 SW5       30.12R
$$

VAZ088>098-111100-
SOUTHEAST VIRGINIA

CITY           SKY/WX    TMP DP  RH WIND       PRES   REMARKS
NORFOLK        FAIR      26   6  42 W10G17    30.06R WCI  16
VIRGINIA BEACH FAIR      29   7  39 W10       30.05R WCI  20
NORFOLK NAVAL  FAIR      26   8  46 W15       30.08R WCI  14
WEST POINT*    FAIR      24   7  47 W13       30.07R WCI  13
SALUDA*        FAIR      24   6  47 W6        30.04R
NEWPORT NEWS   FAIR      25   7  46 W9        30.06R
LANGLEY AFB    FAIR      24   8  50 W15G21    30.05R WCI  12
FORT EUSTIS    FAIR      24   7  47 W9        30.05R
WILLIAMSBURG*  FAIR      27   9  46 NW12      30.07R WCI  16
HR EXEC AP*    FAIR      25   7  46 W9        30.09R
FRANKLIN*      FAIR      24   6  48 W6        30.10R
US460-WAKEFLD  FAIR      22   8  55 W6        30.08R
$$

VAZ020-022-025-037-045-111100-
WEST CENTRAL AND SOUTHWEST VIRGINIA

CITY           SKY/WX    TMP DP  RH WIND       PRES   REMARKS
STAUNTON*      FAIR      19   2  47 W10       30.01R WCI   7
WAYNESBORO*    FAIR      13  -2  49 W7        29.97R
HOT SPRINGS VA CLOUDY     6   0  78 W26G35    29.74R WCI -17
LYNCHBURG      FAIR      17   1  49 W10G17    30.04R WCI   5
DANVILLE       FAIR      17   6  62 SW8       30.11R
SOUTH BOSTON*  FAIR      18   4  54 SW3       30.11R
MARTINSVILLE   FAIR      14   3  62 W3        30.11R
ROANOKE        FAIR      18   2  49 NW20G30   30.05R WCI   2
BLACKSBURG     FAIR      15   5  65 W13G26    30.00R WCI   1
DUBLIN*        CLOUDY    17   8  68 W12       30.01R WCI   4
MARION*        CLOUDY    15   6  67 W17G23    30.01R WCI  -1
HILLSVILLE*    CLOUDY    13   6  73 W17G28    29.93R WCI  -4
RICHLANDS*     LGT SNOW  12   8  82 W9        30.01R
WISE*          FLURRIES  16   5  62 W5        30.03R
ABINGDON*      CLOUDY    17   6  64 W3        30.06S
$$

MDZ021>025-VAZ099-100-111100-
SOUTHERN MARYLAND AND THE DELMARVA PENINSULA

CITY           SKY/WX    TMP DP  RH WIND       PRES   REMARKS
PATUXENT RIVER CLEAR     23   6  48 W13       30.01R WCI  11
BAY BRIDGE APT   N/A     25   5  42 NW18G28   29.99R WCI  11
LEONARDTOWN    CLEAR     23   7  50 MISG        N/A
DOVER          CLEAR     24  10  56 W18G25    29.93R WCI   9
GEORGETOWN     CLEAR     24   8  50 W8G16     29.96R
EASTON         PTCLDY    24   9  51 NW14G26   30.02R WCI  12
CAMBRIDGE      CLEAR     25   7  46 W14G22    29.99R WCI  13
SALISBURY      CLEAR     24   7  48 W14G24    29.98R WCI  12
OCEAN CITY     CLEAR     24   9  52 NW12G20   29.97R WCI  13
WALLOPS ISLAND FAIR      24   9  52 NW16G24   30.00R WCI  11
ACCOMACK*      MOCLDY    27   9  46 W13G24    30.00R WCI  16
$$

NCZ012>017-030>032-111100-
NORTH CENTRAL AND EASTERN NORTH CAROLINA

CITY           SKY/WX    TMP DP  RH WIND       PRES   REMARKS
ROANOKE RAPIDS FAIR      21  10  63 W3        30.11R
RALEIGH        CLEAR     22   5  48 NW5       30.13R
ELIZABETH CITY CLEAR     24  11  57 W10       30.09R WCI  14
AHOSKIE*       PTCLDY    23   7  50 CALM      30.11R
EDENTON*       CLEAR     28   9  46 NW8       30.11R
CURRITUCK*     CLEAR     26  11  52 W8        30.08R
KILL DEVIL HLS CLEAR     28  11  49 W15G21    30.06R WCI  16
MANTEO         PTCLDY    28  11  49 NW9G21    30.08R
CAPE HATTERAS  CLEAR     30  12  47 NW15G23   30.08R WCI  19
TARBORO*       FAIR      23  12  63 W6        30.15R
GOLDSBORO      CLEAR     27   7  43 NW10      30.13R WCI  17
WASHINGTON     CLEAR     26   9  50 W6        30.13R
GREENVILLE     CLEAR     27  12  54 NW3       30.14R
NEW BERN       CLEAR     27  10  49 W8        30.14R
WILMINGTON     CLEAR     29  14  53 W6        30.16R
$$

VAZ048-111100-
ELSEWHERE

CITY           SKY/WX    TMP DP  RH WIND       PRES   REMARKS
HARRISBURG PA  PTCLDY    21   9  59 W14       29.92R WCI   8
BALTIMORE      MOCLDY    21   5  50 W18G25    29.98R WCI   6
ANNAPOLIS      PTCLDY    23   7  50 W12G22    29.99R WCI  12
ANDREWS AFB    FAIR      22   4  45 W13       29.99R WCI  10
PHILADELPHIA   PTCLDY    24  11  57 W14G24    29.91R WCI  12
HENDERSON NC   CLEAR     20   5  53 SW3       30.11R
GREENSBORO     CLEAR     15   4  61 SW5       30.09R
ROCKY MOUNT    CLEAR     24   8  50 W7        30.14R
$$

VAZ100-111100-
MARINE

STATION/POSITION TIME  TEMP    WIND        PRES    WAVE   SWELL
                       AIR SEA DIR/SP/G            HT/PER HT/PER
                 (UTC) (F)     (DEG/KT/KT) (MB)    (FT/S) (FT/S)
BRANDYWINE LGT   0900   25     310/ 24/ 34 1012.7R
CAPE MAY NJ      0900   26 39  300/ 20/ 29 1012.5R
LEWES DE         0900   26 39  290/ 20/ 27 1013.3R
15NM E FENWICK I 0950   28 42              1013.3R   5/ 5
OCEAN-CITY-INLET 0900   26 39  310/ 11/ 16 1013.3R
WACHAPREAGUE VA  0900   27 40  280/  5/ 10 1015.2R
THOMAS POINT MD  1000   23 38  290/ 20/ 24 1016.2R
GOOSES REEF MD   1000   25 38  300/ 17/ 19 1016.9R   2/ 3
COVE POINT MD    0900   24     330/ 16/ 19 1015.8S
SOLOMONS ISLAND  0900   26 40  300/  6/ 13   N/A
BISHOPS HEAD MD  0900   27 36  300/ 24/ 27 1014.4R
PINEY POINT MD   0900          340/ 23/ 27   N/A
POTOMAC MD       1000   27 40  300/ 19/ 23 1015.4R   3/ 3
CAMBRIDGE MD     0900   26 39  280/ 16/ 24 1014.1R
LEWISETTA VA     0900   26 40  300/ 15/ 19 1015.6R
RAPPAHANNOCK LGT 0900          290/ 22/ 27 1015.7R
STINGRAY PT      1000   27 41  280/ 17/ 23 1016.9R   2/ 2
YORK RVR RNG VA  0900   27     310/ 17/ 21 1015.6R
YORKTOWN VA      0900   26 42  280/ 12/ 14 1016.3R
JAMESTOWN VA     1000   25 42  260/ 14/ 17   N/A     1
DOMINION TERM VA 0900   27     300/ 20/ 24 1016.3R
KIPTOPEKE VA     0900      41  310/ 21/ 26   N/A
CHES BAY BRIDGE  0900   28 42  280/ 19/ 26 1016.0R
CAPE HENRY VA    0900   27     300/ 17/ 23   N/A
CHESAPEAKE LGHT  0900   29     290/ 24/ 27 1016.7R
WILLOUBY STN VA  0900   27     300/ 17/ 21 1017.3R
CAPE HENRY BUOY  0928      43                N/A     4/ 4   2/13
1ST LANDING BUOY 1000      41                N/A     3/ 3
CAPE CHARLES BUO 0926      42                N/A     3/13   2/13
OFFSHORE WE BUOY 0921      45                N/A     5/ 5   2/11
64NM E OF VA BCH 0950   33 49  300/ 21/ 27 1015.0R   8/ 6   2/13
DUCK PIER NC     0900   28     290/ 16/ 19 1016.8R
44100 DUCK FRF   0924      46                N/A     5/ 4   2/13
44056 DUCK FRF   0911      44                N/A     3/13   2/13
OREGON INLET NC  0900   29 42  290/ 14/ 22 1017.5R
HATTERAS NC      0900   31 47  300/ 22/ 26 1017.7R
DIAMOND SHLS NC  0950   35 71  310/ 23/ 29 1018.2C1F1C2F2C3F3C4F4C5F5C6F6C7F7C8M1C9!



USA.gov is the U.S. government's official web portal to all federal, state and local government web resources and services.